Regional Weather Roundup
Issued by NWS Burlington, VT

Home | Current Version | Previous Version | Text Only | Print | Product List | Glossary On
Versions: 1 2 3 4 5 6 7 8 9 10 11 12 13 14 15 16 17 18 19 20 21 22 23 24 25 26 27 28 29 30 31 32 33 34 35 36 37 38 39 40 41 42 43 44 45 46 47 48 49 50
000
ASUS41 KBTV 310230
RWRBTV
VERMONT REGIONAL WEATHER ROUNDUP
NATIONAL WEATHER SERVICE BURLINGTON VT
1000 PM EDT WED JUL 30 2014

NOTE: "FAIR" INDICATES FEW OR NO CLOUDS BELOW 12,000 FEET WITH NO
SIGNIFICANT WEATHER AND/OR OBSTRUCTIONS TO VISIBILITY.

* THESE REPORTS ARE NOT UNDER NWS QUALITY CONTROL AND/OR DO NOT
  REPORT WEATHER SUCH AS PRECIPITATION AND FOG.

VTZ001>019-310300-
_____VERMONT_____


CITY           SKY/WX    TMP DP  RH WIND       PRES   REMARKS
BURLINGTON     CLEAR     67  52  58 S7        29.98S
MONTPELIER     CLEAR     57  50  77 S5        30.06R
MORRISVILLE    CLEAR     57  54  89 CALM      30.03R
ST. JOHNSBURY*   N/A     59  55  87 MISG      30.01R
LYNDONVILLE*   FAIR      58  51  77 CALM      30.05S
MIDDLEBURY*    MOCLDY    64  53  66 SE5       30.00S
RUTLAND*       CLEAR     57  52  82 SE12      30.03S
SPRINGFIELD    CLEAR     56  53  90 CALM      30.04R
HIGHGATE*      FAIR      62  54  75 CALM      29.97S
NEWPORT*       FAIR      56  54  91 SW3       30.02S
BENNINGTON     CLEAR     58  54  86 CALM      30.03S
GALLUP MILLS*    N/A     39 N/A N/A MISG        N/A
UNION VILLAGE*   N/A     57 N/A N/A MISG        N/A
MT. MANSFIELD*   N/A     52 N/A N/A W8G21       N/A

_____LAKE CHAMPLAIN_____


CITY           SKY/WX    TMP DP  RH WIND       PRES   REMARKS
COLCHESTER RF*   N/A     70  59  68 S13         N/A
DIAMOND ISL*     N/A     66  55  68 SE7         N/A

$$

NYZ007-026>031-035-052-083-310300-
_____NORTHERN NEW YORK_____


CITY           SKY/WX    TMP DP  RH WIND       PRES   REMARKS
PLATTSBURGH    CLEAR     60  57  89 CALM      29.97R
SARANAC LAKE   MOCLDY    55  53  93 CALM      30.00R
MASSENA        MOCLDY    61  59  93 NW3       29.98R
OGDENSBURG*    CLEAR     59  57  94 CALM      29.97S
POTSDAM*       PTCLDY    61  61 100 S3        29.98R
PARISHVILLE*     N/A     61 N/A N/A W3          N/A
WATERTOWN      MOCLDY    63  54  72 SW3       29.99R
FT DRUM        CLOUDY    63  55  77 S8        29.99R
ALBANY         MOCLDY    66  55  67 CALM      30.01R
GLENS FALLS    CLEAR     61  57  87 CALM      30.00S

$$
NHZ002-005-011-310300-
_____NEW HAMPSHIRE_____


CITY           SKY/WX    TMP DP  RH WIND       PRES   REMARKS
LEBANON        CLEAR     57  54  89 CALM      30.02R
KEENE          CLEAR     57  48  72 CALM      30.05R
MT WASHINGTON  FOG       43  42  97 SW14        N/A  VSB 1/8
PLYMOUTH       FAIR      57  56  94 CALM      30.04R
WHITEFIELD     CLEAR     56  54  93 CALM      30.04R

$$

_____REGIONAL QUEBEC LOCATIONS_____


CITY           SKY/WX    TMP DP  RH WIND       PRES   REMARKS
MONTREAL       PTCLDY    66  57  72 NW5       29.96S
QUEBEC CITY    PTCLDY    61  55  82 CALM      29.98S
SHERBROOKE     CLEAR     55  54  94 E3        30.01R

_____REGIONAL ONTARIO LOCATIONS_____


CITY           SKY/WX    TMP DP  RH WIND       PRES   REMARKS
OTTAWA         MOCLDY    57  57 100 S3        29.96S

______KEY______
VSB  - VISIBILITY IN MILES
WCI  - WIND CHILL INDEX
HX   - HEAT INDEX
$$
NNNN



USA.gov is the U.S. government's official web portal to all federal, state and local government web resources and services.